Content
SEND FEEDBACK

Daily
Averages
Monthly
Summary
United States of America

BEAVER ISLAND, MICHIGAN


Home > North America > United States > Michigan
Elevation: 627 feet     Latitude: 45 43N     Longitude: 085 31W

WEATHER
 
SELECT A DAY
Number of Records: 326,581;   Date Range: 9/12/01 - 9/30/14
 
SHARE

PRINT THIS DATA

[ ← Previous Day ]
WEATHER ALMANAC - MARCH 6, 2014
[ Next Day → ]
[ °C ]   °F
Weather ElementAverageHighLow
Temperature14.4 °F26.8 °F (5:16 pm)3 °F (6:15 am)
Dewpoint2.6 °F10.4 °F (10:55 pm)-2.4 °F (6:36 am)
Humidity61.9 %80 % (2:15 am)33 % (5:35 pm)
Barometer30.33 in30.53 in (12:35 am)30.02 in (11:56 pm)
Wind Speed6.4 mph16.1 mph (11:55 am)
Wind Gust24.2 mph (12:16 pm)
Weather ElementAverage
Visibility9.4 mi
Wind DirectionESE (124.2 °)

Weather ElementTotal
Precipitation---
Heating Degree Days50.1 (Base 65)
Averaged from 71 records on March 6, 2014
WEATHER CONDITIONS BREAKOUT
WIND DIRECTION BREAKOUT
WEATHER BY HOUR - MARCH 6, 2014
[ °C ]   °F
Local TimeTemperatureDewpointHumidityBarometerVisibilityWind DirectionWind SpeedGust SpeedPrecipitationEventsConditions
12:35 AM5.4 °F-0.2 °F78 %30.53 in10.0 miESE (110°)6.9 mphClear
12:56 AM5.9 °F0.3 °F78 %30.53 in10.0 miESE (120°)6.9 mphClear
1:15 AM5.9 °F0.5 °F78 %30.52 in10.0 miESE (120°)9.2 mphClear
1:35 AM6.6 °F0.9 °F77 %30.52 in10.0 miESE (120°)5.8 mphClear
1:56 AM5.7 °F0.1 °F78 %30.53 in10.0 miESE (120°)4.6 mphClear
2:15 AM4.5 °F-0.4 °F80 %30.53 in10.0 miSE (130°)4.6 mphClear
2:35 AM3.7 °F-1.5 °F79 %30.53 in10.0 miSE (130°)3.5 mphClear
2:56 AM4.8 °F-0.2 °F80 %30.53 in10.0 miSE (130°)4.6 mphClear
3:15 AM4.6 °F-0.4 °F80 %30.53 in10.0 miSE (140°)4.6 mphClear
3:36 AM5.5 °F0.0 °F78 %30.53 in10.0 miSE (130°)4.6 mphClear
3:56 AM3.7 °F-1.3 °F80 %30.52 in10.0 miSE (130°)4.6 mphClear
4:15 AM4.8 °F-0.2 °F80 %30.52 in10.0 miSE (130°)5.8 mphClear
4:36 AM4.6 °F-0.4 °F80 %30.51 in10.0 miSE (130°)5.8 mphClear
4:55 AM4.6 °F-0.4 °F80 %30.50 in10.0 miESE (120°)6.9 mphClear
5:15 AM4.3 °F-0.6 °F80 %30.50 in10.0 miSE (130°)6.9 mphClear
5:36 AM3.6 °F-1.5 °F80 %30.50 in10.0 miESE (120°)6.9 mphClear
5:55 AM3.4 °F-1.7 °F80 %30.50 in10.0 miESE (120°)5.8 mphClear
6:15 AM3.0 °F-2.2 °F79 %30.50 in10.0 miESE (120°)5.8 mphClear
6:36 AM3.2 °F-2.4 °F78 %30.48 in10.0 miSE (130°)4.6 mphClear
6:55 AM3.9 °F-2.2 °F76 %30.48 in10.0 miSE (130°)5.8 mphClear
7:16 AM4.6 °F-1.7 °F75 %30.46 in10.0 miSE (130°)6.9 mphClear
7:35 AM5.0 °F-1.5 °F75 %30.46 in10.0 miSE (130°)6.9 mphClear
7:55 AM5.7 °F-0.9 °F74 %30.45 in10.0 miSE (130°)6.9 mphClear
8:16 AM6.8 °F-0.4 °F72 %30.45 in10.0 miSE (130°)6.9 mphClear
8:35 AM8.1 °F0.5 °F71 %30.45 in10.0 miSE (130°)6.9 mphClear
8:56 AM9.5 °F1.4 °F70 %30.45 in10.0 miSE (140°)8.1 mphClear
9:16 AM11.5 °F2.3 °F67 %30.44 in10.0 miSSE (150°)9.2 mph16.1 mphClear
9:35 AM12.7 °F2.3 °F63 %30.44 in10.0 miSSE (150°)12.7 mph17.3 mphClear
9:56 AM13.6 °F2.3 °F61 %30.44 in7.0 miSSE (150°)10.4 mphClear
10:15 AM14.9 °F2.3 °F57 %30.43 in7.0 miSSE (150°)9.2 mph17.3 mphClear
10:36 AM16.7 °F2.5 °F54 %30.42 in10.0 miSouth (170°)6.9 mphClear
10:55 AM17.4 °F2.8 °F53 %30.41 in4.0 miSSE (160°)12.7 mph19.6 mphSnowLight Snow
11:15 AM18.0 °F3.2 °F53 %30.40 in3.0 miSSE (160°)12.7 mph17.3 mphSnowLight Snow
11:36 AM19.2 °F3.4 °F50 %30.39 in7.0 miSSE (160°)10.4 mph18.4 mphClear
11:55 AM19.4 °F3.9 °F51 %30.39 in2.5 miSSE (160°)16.1 mph21.9 mphSnowLight Snow
12:16 PM19.9 °F4.6 °F52 %30.38 in5.0 miSSE (160°)10.4 mph24.2 mphSnowLight Snow
12:36 PM20.3 °F4.3 °F50 %30.36 in3.0 miSouth (170°)10.4 mph19.6 mphSnowLight Snow
12:55 PM20.7 °F4.5 °F50 %30.34 in10.0 miSE (140°)11.5 mph19.6 mphClear
1:16 PM21.4 °F4.5 °F48 %30.33 in10.0 miSSE (150°)8.1 mph16.1 mphClear
1:35 PM22.1 °F4.3 °F46 %30.32 in10.0 miSSE (150°)11.5 mph20.7 mphClear
1:55 PM22.6 °F4.1 °F45 %30.30 in10.0 miSSE (150°)10.4 mph18.4 mphClear
2:15 PM23.2 °F4.6 °F45 %30.29 in10.0 miSSE (150°)10.4 mphClear
2:35 PM23.7 °F4.8 °F44 %30.28 in10.0 miSSE (160°)4.6 mphClear
2:56 PM24.1 °F4.8 °F44 %30.26 in10.0 miSSW (200°)10.4 mphClear
3:15 PM24.3 °F4.8 °F43 %30.25 in10.0 miSSE (160°)5.8 mphClear
3:35 PM25.0 °F4.3 °F41 %30.24 in10.0 miSE (140°)10.4 mphClear
3:55 PM25.5 °F4.8 °F41 %30.22 in10.0 miSSE (150°)6.9 mph17.3 mphClear
4:15 PM26.2 °F3.9 °F39 %30.20 in10.0 miSSE (150°)8.1 mphClear
4:36 PM26.2 °F3.6 °F38 %30.18 in10.0 miSSE (150°)9.2 mphClear
4:55 PM26.6 °F3.0 °F36 %30.18 in10.0 miSE (140°)9.2 mphClear
5:16 PM26.8 °F2.1 °F35 %30.18 in10.0 miSouth (170°)6.9 mphClear
5:35 PM26.6 °F0.9 °F33 %30.16 in10.0 miSSE (150°)6.9 mphClear
5:56 PM26.2 °F0.9 °F34 %30.15 in10.0 miSSE (150°)6.9 mphClear
6:16 PM25.2 °F1.4 °F36 %30.15 in10.0 miSouth (170°)4.6 mphClear
6:35 PM23.9 °F1.8 °F38 %30.15 in10.0 miSE (130°)3.5 mphClear
6:56 PM20.3 °F3.2 °F48 %30.14 in10.0 miSE (130°)3.5 mphClear
7:15 PM17.4 °F4.5 °F57 %30.14 in10.0 miCalmClear
7:36 PM15.3 °F3.6 °F60 %30.12 in10.0 miSE (140°)3.5 mphClear
7:56 PM14.4 °F3.7 °F63 %30.12 in10.0 miSE (140°)3.5 mphClear
8:15 PM15.6 °F4.3 °F61 %30.12 in10.0 miCalmClear
8:36 PM14.2 °F4.5 °F65 %30.10 in10.0 miCalmClear
8:55 PM15.8 °F5.7 °F64 %30.10 in10.0 miCalmClear
9:15 PM13.1 °F4.6 °F69 %30.09 in10.0 miCalmClear
9:36 PM14.7 °F6.4 °F70 %30.09 in10.0 miCalmClear
9:55 PM15.6 °F7.7 °F71 %30.08 in10.0 miCalmClear
10:16 PM16.5 °F8.4 °F70 %30.08 in10.0 miSSE (150°)3.5 mphClear
10:35 PM17.2 °F9.9 °F73 %30.07 in10.0 miCalmClear
10:55 PM17.8 °F10.4 °F73 %30.06 in10.0 miCalmClear
11:15 PM18.3 °F10.4 °F71 %30.04 in10.0 miSSE (150°)4.6 mphClear
11:35 PM18.9 °F9.1 °F66 %30.03 in10.0 miSSE (150°)5.8 mphClear
11:56 PM19.4 °F4.8 °F53 %30.02 in10.0 miSSE (160°)5.8 mphClear
Hourly data recorded from KSJX, located miles away from Beaver Island, Michigan







STORIES FROM OUR PARTNERS